| time (UTC) | temp F | wind direction | speed knots | gust knots | rain 1hr in | rain 24hr in | rain mn in | humidity % | barometer mb |
| 20260906130807 | 75 | 51 | 4.3 | 10.4 | 0.00 | 0.00 | 0.00 | 73 | 1013.0 |
| 20260906130306 | 75 | 54 | 4.3 | 7.8 | 0.00 | 0.00 | 0.00 | 73 | 1012.9 |
| 20260906125806 | 75 | 52 | 5.2 | 8.7 | 0.00 | 0.00 | 0.00 | 74 | 1013.0 |
| 20260906124308 | 74 | 50 | 6.1 | 10.4 | 0.00 | 0.00 | 0.00 | 75 | 1013.1 |
| 20260906123307 | 74 | 35 | 5.2 | 10.4 | 0.00 | 0.00 | 0.00 | 76 | 1013.0 |
| 20260906122807 | 74 | 55 | 5.2 | 8.7 | 0.00 | 0.00 | 0.00 | 76 | 1013.0 |
| 20260906121307 | 74 | 46 | 2.6 | 6.1 | 0.00 | 0.00 | 0.00 | 79 | 1012.9 |
| 20260906120806 | 74 | 51 | 4.3 | 8.7 | 0.00 | 0.00 | 0.00 | 79 | 1012.8 |
| 20260906113806 | 71 | 37 | 5.2 | 8.7 | 0.00 | 0.00 | 0.00 | 82 | 1012.3 |
| 20260906112807 | 71 | 48 | 5.2 | 10.4 | 0.00 | 0.00 | 0.00 | 82 | 1012.2 |
| 20260906110307 | 70 | 70 | 6.1 | 10.4 | 0.00 | 0.00 | 0.00 | 85 | 1011.9 |
| 20260906105806 | 70 | 77 | 6.1 | 12.2 | 0.00 | 0.00 | 0.00 | 86 | 1011.9 |
| 20260906105307 | 70 | 64 | 7.8 | 12.2 | 0.00 | 0.00 | 0.00 | 85 | 1011.8 |
| 20260906104306 | 70 | 68 | 8.7 | 12.2 | 0.00 | 0.00 | 0.00 | 85 | 1011.6 |
| 20260906103806 | 70 | 52 | 7.8 | 17.4 | 0.00 | 0.00 | 0.00 | 85 | 1011.6 |
| 20260906102807 | 70 | 58 | 8.7 | 13.9 | 0.00 | 0.00 | 0.00 | 86 | 1011.4 |
| 20260906100306 | 70 | 60 | 8.7 | 14.8 | 0.00 | 0.00 | 0.00 | 85 | 1011.2 |
| 20260906095807 | 70 | 54 | 9.6 | 14.8 | 0.00 | 0.00 | 0.00 | 85 | 1011.1 |
| 20260906094806 | 70 | 30 | 6.1 | 12.2 | 0.00 | 0.00 | 0.00 | 85 | 1010.9 |
| 20260906094306 | 70 | 39 | 8.7 | 13.0 | 0.00 | 0.00 | 0.00 | 87 | 1011.0 |
| 20260906091807 | 70 | 24 | 11.3 | 15.6 | 0.00 | 0.00 | 0.00 | 86 | 1010.5 |
| 20260906091306 | 70 | 15 | 9.6 | 13.0 | 0.00 | 0.00 | 0.00 | 86 | 1010.5 |
| 20260906090806 | 70 | 2 | 8.7 | 12.2 | 0.00 | 0.00 | 0.00 | 86 | 1010.5 |
| 20260906090306 | 70 | 15 | 8.7 | 12.2 | 0.00 | 0.00 | 0.00 | 86 | 1010.5 |
| 20260906084807 | 70 | 14 | 7.8 | 12.2 | 0.00 | 0.00 | 0.00 | 86 | 1010.3 |
| 20260906082807 | 71 | 351 | 8.7 | 11.3 | 0.00 | 0.00 | 0.00 | 85 | 1010.3 |
| 20260906082306 | 71 | 357 | 7.0 | 10.4 | 0.00 | 0.00 | 0.00 | 85 | 1010.3 |
| 20260906081307 | 71 | 31 | 6.1 | 10.4 | 0.00 | 0.00 | 0.00 | 84 | 1010.2 |
| 20260906080807 | 71 | 359 | 7.0 | 10.4 | 0.00 | 0.00 | 0.00 | 85 | 1010.1 |
| 20260906080307 | 71 | 0 | 6.1 | 8.7 | 0.00 | 0.00 | 0.00 | 85 | 1010.0 |
| 20260906075806 | 71 | 0 | 6.1 | 8.7 | 0.00 | 0.00 | 0.00 | 85 | 1010.0 |
| 20260906075306 | 71 | 7 | 6.1 | 10.4 | 0.00 | 0.00 | 0.00 | 84 | 1010.1 |
| 20260906074807 | 71 | 1 | 6.1 | 10.4 | 0.00 | 0.00 | 0.00 | 84 | 1010.1 |
| 20260906073807 | 71 | 349 | 5.2 | 10.4 | 0.00 | 0.00 | 0.00 | 84 | 1010.2 |
| 20260906073306 | 71 | 348 | 7.8 | 10.4 | 0.00 | 0.00 | 0.00 | 83 | 1010.2 |
| 20260906072306 | 71 | 7 | 7.0 | 10.4 | 0.00 | 0.00 | 0.00 | 83 | 1010.0 |
| 20260906071806 | 72 | 347 | 5.2 | 7.8 | 0.00 | 0.00 | 0.00 | 83 | 1010.0 |
| 20260906071307 | 72 | 6 | 4.3 | 7.8 | 0.00 | 0.00 | 0.00 | 83 | 1010.0 |
| 20260906070806 | 72 | 4 | 4.3 | 7.0 | 0.00 | 0.00 | 0.00 | 83 | 1010.0 |
| 20260906070306 | 72 | 358 | 5.2 | 7.8 | 0.00 | 0.00 | 0.00 | 83 | 1010.0 |
| 20260906065806 | 72 | 346 | 4.3 | 7.0 | 0.00 | 0.00 | 0.00 | 83 | 1010.0 |
| 20260906062806 | 72 | 352 | 5.2 | 8.7 | 0.00 | 0.00 | 0.00 | 82 | 1010.2 |
| 20260906062306 | 72 | 35 | 5.2 | 7.8 | 0.00 | 0.00 | 0.00 | 81 | 1010.2 |
| 20260906061806 | 72 | 22 | 4.3 | 8.7 | 0.00 | 0.00 | 0.00 | 82 | 1010.2 |
| 20260906061306 | 72 | 28 | 5.2 | 8.7 | 0.00 | 0.00 | 0.00 | 81 | 1010.2 |
| 20260906060306 | 72 | 3 | 7.0 | 10.4 | 0.00 | 0.02 | 0.00 | 80 | 1010.4 |
| 20260906055807 | 72 | 354 | 7.8 | 10.4 | 0.00 | 0.07 | 0.00 | 81 | 1010.4 |
| 20260906054807 | 72 | 320 | 4.3 | 7.8 | 0.00 | 0.08 | 0.00 | 82 | 1010.4 |
| 20260906052309 | 72 | 330 | 4.3 | 5.2 | 0.00 | 0.08 | 0.00 | 82 | 1010.7 |
| 20260906051806 | 72 | 313 | 2.6 | 4.3 | 0.00 | 0.08 | 0.00 | 82 | 1010.7 |
| 20260906051306 | 72 | 326 | 2.6 | 7.8 | 0.00 | 0.08 | 0.00 | 82 | 1010.7 |
| 20260906050806 | 72 | 314 | 1.7 | 6.1 | 0.00 | 0.08 | 0.00 | 82 | 1010.7 |
| 20260906045306 | 72 | 292 | 4.3 | 7.0 | 0.00 | 0.08 | 0.00 | 81 | 1010.7 |
| 20260906044806 | 72 | 300 | 2.6 | 5.2 | 0.00 | 0.08 | 0.00 | 81 | 1010.7 |
| 20260906044306 | 72 | 285 | 1.7 | 5.2 | 0.00 | 0.08 | 0.00 | 81 | 1010.8 |
| 20260906043806 | 72 | 280 | 1.7 | 5.2 | 0.00 | 0.08 | 0.00 | 81 | 1010.8 |
| 20260906043306 | 72 | 284 | 2.6 | 5.2 | 0.00 | 0.08 | 0.00 | 81 | 1010.8 |
| 20260906040832 | 73 | 281 | 2.6 | 5.2 | 0.00 | 0.08 | 0.00 | 80 | 1010.9 |
| 20260906035806 | 73 | 289 | 1.7 | 4.3 | 0.00 | 0.08 | 0.08 | 80 | 1010.9 |
| 20260906035306 | 73 | 269 | 1.7 | 4.3 | 0.00 | 0.08 | 0.08 | 80 | 1011.0 |
| 20260906034306 | 73 | 294 | 1.7 | 4.3 | 0.00 | 0.08 | 0.08 | 79 | 1010.9 |
| 20260906033806 | 73 | 280 | 2.6 | 5.2 | 0.00 | 0.08 | 0.08 | 78 | 1010.8 |
| 20260906032806 | 73 | 290 | 1.7 | 4.3 | 0.00 | 0.08 | 0.08 | 78 | 1010.8 |
| 20260906031806 | 73 | 280 | 1.7 | 4.3 | 0.00 | 0.08 | 0.08 | 79 | 1010.7 |
| 20260906030806 | 73 | 279 | 0.9 | 2.6 | 0.00 | 0.08 | 0.08 | 79 | 1010.8 |
| 20260906030306 | 73 | 284 | 0.9 | 2.6 | 0.00 | 0.08 | 0.08 | 79 | 1010.8 |
| 20260906025806 | 73 | 275 | 0.9 | 2.6 | 0.00 | 0.08 | 0.08 | 79 | 1010.8 |
| 20260906025306 | 73 | 274 | 0.9 | 1.7 | 0.00 | 0.08 | 0.08 | 79 | 1010.8 |
| 20260906024806 | 73 | 273 | 0.0 | 2.6 | 0.00 | 0.08 | 0.08 | 79 | 1010.7 |
| 20260906024306 | 73 | 268 | 0.9 | 2.6 | 0.00 | 0.08 | 0.08 | 78 | 1010.7 |
| 20260906023806 | 74 | 282 | 0.9 | 2.6 | 0.00 | 0.08 | 0.08 | 78 | 1010.6 |
| 20260906021806 | 74 | 282 | 0.9 | 2.6 | 0.00 | 0.08 | 0.08 | 76 | 1010.6 |
| 20260906021306 | 74 | 282 | 0.0 | 2.6 | 0.00 | 0.08 | 0.08 | 76 | 1010.6 |
| 20260906020807 | 75 | 282 | 0.9 | 2.6 | 0.00 | 0.08 | 0.08 | 77 | 1010.6 |
| 20260906015806 | 74 | 279 | 0.0 | 2.6 | 0.00 | 0.08 | 0.08 | 75 | 1010.5 |
| 20260906015306 | 75 | 295 | 0.0 | 2.6 | 0.00 | 0.08 | 0.08 | 75 | 1010.4 |
| 20260906014806 | 75 | 297 | 0.0 | 1.7 | 0.00 | 0.08 | 0.08 | 74 | 1010.4 |
| 20260906014306 | 75 | 297 | 0.0 | 0.0 | 0.00 | 0.08 | 0.08 | 74 | 1010.3 |
| 20260906013806 | 75 | 297 | 0.0 | 2.6 | 0.00 | 0.08 | 0.08 | 74 | 1010.3 |
| 20260906012808 | 74 | 127 | 0.0 | 0.0 | 0.00 | 0.08 | 0.08 | 71 | 1010.2 |
| 20260906011306 | 74 | 127 | 0.0 | 0.0 | 0.00 | 0.08 | 0.08 | 71 | 1010.2 |
| 20260906005306 | 74 | 127 | 0.0 | 0.9 | 0.00 | 0.08 | 0.08 | 71 | 1010.0 |
| 20260906004806 | 74 | 127 | 0.0 | 0.0 | 0.00 | 0.08 | 0.08 | 70 | 1010.1 |
| 20260906004306 | 74 | 127 | 0.0 | 0.0 | 0.00 | 0.08 | 0.08 | 70 | 1010.0 |
| 20260906000306 | 75 | 127 | 0.0 | 0.0 | 0.00 | 0.08 | 0.08 | 70 | 1009.5 |
| 20260905235307 | 75 | 127 | 0.0 | 0.0 | 0.00 | 0.08 | 0.08 | 70 | 1009.4 |
| 20260905234805 | 75 | 127 | 0.0 | 0.9 | 0.00 | 0.08 | 0.08 | 69 | 1009.4 |
| 20260905234305 | 75 | 127 | 0.9 | 0.9 | 0.00 | 0.08 | 0.08 | 70 | 1009.3 |
| 20260905233306 | 75 | 127 | 0.0 | 0.0 | 0.00 | 0.08 | 0.08 | 70 | 1009.3 |
| 20260905232806 | 76 | 127 | 0.0 | 0.0 | 0.00 | 0.08 | 0.08 | 69 | 1009.3 |
| 20260905232306 | 76 | 127 | 0.0 | 0.0 | 0.00 | 0.08 | 0.08 | 69 | 1009.3 |
| 20260905231306 | 76 | 127 | 0.0 | 0.9 | 0.00 | 0.08 | 0.08 | 69 | 1009.3 |
| 20260905225807 | 77 | 127 | 1.7 | 2.6 | 0.00 | 0.08 | 0.08 | 67 | 1009.5 |
| 20260905224805 | 77 | 128 | 0.9 | 2.6 | 0.00 | 0.08 | 0.08 | 67 | 1009.3 |
| 20260905223806 | 78 | 169 | 0.9 | 2.6 | 0.00 | 0.08 | 0.08 | 65 | 1009.3 |
| 20260905223306 | 78 | 169 | 1.7 | 2.6 | 0.00 | 0.08 | 0.08 | 64 | 1009.3 |
| 20260905222806 | 78 | 169 | 1.7 | 2.6 | 0.00 | 0.08 | 0.08 | 64 | 1009.3 |
| 20260905214806 | 78 | 150 | 1.7 | 4.3 | 0.00 | 0.08 | 0.08 | 65 | 1009.2 |
| 20260905214306 | 78 | 128 | 1.7 | 4.3 | 0.00 | 0.08 | 0.08 | 64 | 1009.2 |
| 20260905211806 | 79 | 93 | 3.5 | 6.1 | 0.00 | 0.08 | 0.08 | 62 | 1009.0 |
| 20260905210806 | 79 | 109 | 2.6 | 5.2 | 0.00 | 0.08 | 0.08 | 63 | 1009.0 |
| 20260905210306 | 78 | 99 | 2.6 | 6.1 | 0.00 | 0.08 | 0.08 | 63 | 1009.0 |
| 20260905203306 | 78 | 77 | 4.3 | 6.1 | 0.00 | 0.08 | 0.08 | 63 | 1008.9 |
| 20260905202306 | 78 | 76 | 4.3 | 6.1 | 0.00 | 0.08 | 0.08 | 64 | 1009.1 |
| 20260905200805 | 79 | 93 | 4.3 | 8.7 | 0.00 | 0.08 | 0.08 | 64 | 1009.1 |
| 20260905200306 | 79 | 100 | 5.2 | 7.0 | 0.00 | 0.08 | 0.08 | 64 | 1009.1 |
| 20260905195307 | 80 | 110 | 2.6 | 5.2 | 0.00 | 0.08 | 0.08 | 65 | 1009.1 |
| 20260905194806 | 80 | 130 | 2.6 | 6.1 | 0.00 | 0.08 | 0.08 | 64 | 1009.0 |
| 20260905192306 | 79 | 137 | 2.6 | 7.8 | 0.00 | 0.08 | 0.08 | 64 | 1009.3 |
| 20260905191806 | 79 | 104 | 5.2 | 7.8 | 0.00 | 0.08 | 0.08 | 61 | 1009.3 |
| 20260905185306 | 80 | 90 | 1.7 | 5.2 | 0.00 | 0.08 | 0.08 | 61 | 1009.3 |
| 20260905183306 | 80 | 89 | 2.6 | 6.1 | 0.00 | 0.08 | 0.08 | 63 | 1009.5 |
| 20260905182306 | 79 | 75 | 5.2 | 6.1 | 0.00 | 0.08 | 0.08 | 63 | 1009.4 |
| 20260905175806 | 79 | 88 | 4.3 | 8.7 | 0.00 | 0.08 | 0.08 | 66 | 1009.5 |
| 20260905175306 | 79 | 90 | 5.2 | 8.7 | 0.00 | 0.08 | 0.08 | 65 | 1009.5 |
| 20260905174806 | 80 | 94 | 5.2 | 8.7 | 0.00 | 0.08 | 0.08 | 64 | 1009.3 |
| 20260905174305 | 80 | 94 | 4.3 | 6.1 | 0.00 | 0.08 | 0.08 | 64 | 1009.4 |
| 20260905172805 | 80 | 107 | 5.2 | 8.7 | 0.00 | 0.08 | 0.08 | 65 | 1009.4 |
| 20260905171305 | 81 | 79 | 4.3 | 7.0 | 0.00 | 0.08 | 0.08 | 64 | 1009.4 |
| 20260905170306 | 81 | 86 | 4.3 | 7.8 | 0.00 | 0.08 | 0.08 | 63 | 1009.4 |
| 20260905165307 | 81 | 107 | 2.6 | 7.0 | 0.00 | 0.08 | 0.08 | 64 | 1009.5 |
| 20260905164806 | 81 | 137 | 3.5 | 6.1 | 0.00 | 0.08 | 0.08 | 63 | 1009.5 |
| 20260905164305 | 81 | 97 | 4.3 | 7.0 | 0.00 | 0.08 | 0.08 | 64 | 1009.5 |
| 20260905162806 | 81 | 132 | 2.6 | 5.2 | 0.00 | 0.08 | 0.08 | 62 | 1009.6 |
| 20260905161306 | 81 | 98 | 4.3 | 7.8 | 0.00 | 0.08 | 0.08 | 63 | 1009.6 |
| 20260905160305 | 81 | 350 | 0.9 | 2.6 | 0.00 | 0.08 | 0.08 | 57 | 1009.8 |
| 20260905155306 | 79 | 350 | 1.7 | 2.6 | 0.00 | 0.08 | 0.08 | 62 | 1009.8 |
| 20260905154805 | 79 | 345 | 2.6 | 2.6 | 0.00 | 0.08 | 0.08 | 62 | 1009.9 |
| 20260905153305 | 78 | 350 | 2.6 | 4.3 | 0.00 | 0.08 | 0.08 | 65 | 1009.9 |
| 20260905151305 | 77 | 0 | 5.2 | 8.7 | 0.00 | 0.08 | 0.08 | 67 | 1009.8 |
| 20260905150805 | 78 | 356 | 5.2 | 7.8 | 0.00 | 0.08 | 0.08 | 67 | 1009.7 |
| 20260905150305 | 78 | 4 | 5.2 | 7.8 | 0.00 | 0.08 | 0.08 | 69 | 1009.8 |
| 20260905145307 | 78 | 22 | 6.1 | 8.7 | 0.00 | 0.08 | 0.08 | 68 | 1009.8 |
| 20260905143806 | 78 | 11 | 4.3 | 6.1 | 0.00 | 0.08 | 0.08 | 67 | 1009.6 |
| 20260905143306 | 77 | 31 | 4.3 | 8.7 | 0.00 | 0.08 | 0.08 | 68 | 1009.5 |
| 20260905142805 | 77 | 17 | 6.1 | 10.4 | 0.00 | 0.08 | 0.08 | 67 | 1009.4 |
| 20260905141805 | 77 | 18 | 5.2 | 8.7 | 0.00 | 0.08 | 0.08 | 69 | 1009.5 |
| 20260905140805 | 77 | 19 | 7.8 | 10.4 | 0.00 | 0.08 | 0.08 | 69 | 1009.4 |
| 20260905140306 | 76 | 9 | 6.1 | 10.4 | 0.00 | 0.08 | 0.08 | 70 | 1009.4 |
| 20260905135805 | 75 | 5 | 6.1 | 13.0 | 0.00 | 0.08 | 0.08 | 72 | 1009.4 |
| 20260905135307 | 75 | 22 | 7.0 | 11.3 | 0.00 | 0.08 | 0.08 | 73 | 1009.3 |
| 20260905133305 | 74 | 25 | 7.8 | 12.2 | 0.00 | 0.08 | 0.08 | 74 | 1009.4 |
| 20260905132805 | 74 | 22 | 8.7 | 12.2 | 0.00 | 0.08 | 0.08 | 74 | 1009.4 |